When you browse on this site, cookies collect data to enhance your experience and personalize the content and advertising you see.
Visit our Privacy Policy to learn more. By continuing to use the site, you agree to this use of cookies and data.
  • în România
  • Lista ţărilor
  • Pe 7 zile
  • Temperatura apei
  • Meteo pe hartă
  • Widget-uri
  • user-avatar
    Intrare

    Meteo pe oră la Serowe

    Astăzi, 18 Februarie, Marţi

    Timp Temperatura Precipitaţii Vânt Presiune Umiditate
    00:00 +25°C° 0 mm 2 m/s 666 mmHg 59%
    01:00 +24°C° 0 mm 2 m/s 666 mmHg 62%
    02:00 +24°C° 0 mm 2 m/s 666 mmHg 63%
    03:00 +23°C° 0 mm 2 m/s 666 mmHg 67%
    04:00 +23°C° 0 mm 2 m/s 666 mmHg 72%
    05:00 +21°C° 0 mm 2 m/s 666 mmHg 76%
    06:00 +22°C° 0 mm 3 m/s 667 mmHg 72%
    07:00 +23°C° 0 mm 4 m/s 668 mmHg 68%
    08:00 +26°C° 0 mm 6 m/s 669 mmHg 62%
    09:00 +28°C° 0 mm 6 m/s 669 mmHg 53%
    10:00 +30°C° 0 mm 6 m/s 669 mmHg 45%
    11:00 +32°C° 0 mm 7 m/s 669 mmHg 36%
    12:00 +34°C° 0 mm 7 m/s 669 mmHg 34%
    13:00 +35°C° 0 mm 7 m/s 668 mmHg 32%
    14:00 +36°C° 0 mm 6 m/s 668 mmHg 30%
    15:00 +35°C° 0 mm 6 m/s 667 mmHg 33%
    16:00 +34°C° 0 mm 6 m/s 667 mmHg 35%
    17:00 +33°C° 0 mm 6 m/s 666 mmHg 38%
    18:00 +30°C° 0 mm 6 m/s 666 mmHg 43%
    19:00 +29°C° 0 mm 6 m/s 667 mmHg 48%
    20:00 +27°C° 0 mm 5 m/s 667 mmHg 53%
    21:00 +26°C° 0 mm 5 m/s 667 mmHg 55%
    22:00 +26°C° 0 mm 5 m/s 667 mmHg 58%
    23:00 +25°C° 0 mm 5 m/s 667 mmHg 60%

    Mâine, 19 Februarie, Miercuri

    Timp Temperatura Precipitaţii Vânt Presiune Umiditate
    00:00 +23°C° 0 mm 5 m/s 667 mmHg 63%
    01:00 +23°C° 0 mm 5 m/s 667 mmHg 66%
    02:00 +22°C° 0 mm 5 m/s 667 mmHg 69%
    03:00 +21°C° 0 mm 5 m/s 667 mmHg 74%
    04:00 +21°C° 0 mm 5 m/s 667 mmHg 79%
    05:00 +20°C° 0 mm 4 m/s 667 mmHg 83%
    06:00 +21°C° 0 mm 5 m/s 667 mmHg 80%
    07:00 +22°C° 0 mm 5 m/s 668 mmHg 77%
    08:00 +23°C° 0 mm 6 m/s 669 mmHg 73%
    09:00 +24°C° 0 mm 6 m/s 669 mmHg 67%
    10:00 +27°C° 0 mm 6 m/s 669 mmHg 62%
    11:00 +28°C° 0 mm 6 m/s 669 mmHg 56%
    12:00 +29°C° 0 mm 6 m/s 669 mmHg 50%
    13:00 +32°C° 0 mm 6 m/s 668 mmHg 43%
    14:00 +33°C° 0 mm 5 m/s 668 mmHg 37%
    15:00 +33°C° 0 mm 5 m/s 667 mmHg 35%
    16:00 +33°C° 0 mm 5 m/s 667 mmHg 33%
    17:00 +33°C° 0 mm 4 m/s 666 mmHg 31%
    18:00 +29°C° 0 mm 4 m/s 666 mmHg 39%
    19:00 +27°C° 0 mm 4 m/s 666 mmHg 47%
    20:00 +25°C° 0 mm 4 m/s 666 mmHg 56%
    21:00 +23°C° 0 mm 4 m/s 666 mmHg 59%
    22:00 +22°C° 0 mm 3 m/s 666 mmHg 63%
    23:00 +22°C° 0 mm 3 m/s 667 mmHg 66%

    Poimâine, 20 Februarie, Joi

    Timp Temperatura Precipitaţii Vânt Presiune Umiditate
    00:00 +21°C° 0 mm 3 m/s 667 mmHg 68%
    01:00 +21°C° 0 mm 3 m/s 667 mmHg 70%
    02:00 +20°C° 0 mm 3 m/s 667 mmHg 72%
    03:00 +20°C° 0 mm 3 m/s 666 mmHg 75%
    04:00 +20°C° 0 mm 3 m/s 666 mmHg 78%
    05:00 +19°C° 0 mm 3 m/s 666 mmHg 81%
    06:00 +20°C° 0 mm 4 m/s 666 mmHg 77%
    07:00 +22°C° 0 mm 4 m/s 667 mmHg 72%
    08:00 +23°C° 0 mm 5 m/s 667 mmHg 68%
    09:00 +26°C° 0 mm 5 m/s 667 mmHg 58%
    10:00 +29°C° 0 mm 5 m/s 668 mmHg 48%
    11:00 +32°C° 0 mm 4 m/s 668 mmHg 38%
    12:00 +34°C° 0 mm 4 m/s 667 mmHg 34%
    13:00 +35°C° 0 mm 4 m/s 667 mmHg 29%
    14:00 +36°C° 0 mm 3 m/s 666 mmHg 24%
    15:00 +36°C° 0 mm 3 m/s 666 mmHg 24%
    16:00 +36°C° 0 mm 3 m/s 665 mmHg 23%
    17:00 +36°C° 0 mm 3 m/s 665 mmHg 22%
    18:00 +34°C° 0 mm 3 m/s 665 mmHg 27%
    19:00 +30°C° 0 mm 3 m/s 664 mmHg 32%
    20:00 +28°C° 0 mm 3 m/s 664 mmHg 37%
    21:00 +27°C° 0 mm 2 m/s 665 mmHg 40%
    22:00 +26°C° 0 mm 2 m/s 665 mmHg 44%
    23:00 +26°C° 0 mm 2 m/s 665 mmHg 47%

    21 Februarie, Vineri

    Timp Temperatura Precipitaţii Vânt Presiune Umiditate
    00:00 +25°C° 0 mm 2 m/s 665 mmHg 48%
    01:00 +24°C° 0 mm 3 m/s 665 mmHg 48%
    02:00 +24°C° 0 mm 3 m/s 665 mmHg 49%
    03:00 +24°C° 0 mm 2 m/s 665 mmHg 50%
    04:00 +23°C° 0 mm 2 m/s 665 mmHg 52%
    05:00 +23°C° 0 mm 2 m/s 665 mmHg 53%
    06:00 +25°C° 0 mm 2 m/s 665 mmHg 52%
    07:00 +26°C° 0 mm 3 m/s 666 mmHg 51%
    08:00 +28°C° 0 mm 3 m/s 667 mmHg 50%
    15:00 +33°C° 0 mm 1 m/s 665 mmHg 31%
    16:00 +33°C° 0 mm 1 m/s 665 mmHg 31%
    17:00 +33°C° 0 mm 1 m/s 664 mmHg 31%
    18:00 +32°C° 0 mm 1 m/s 665 mmHg 34%
    19:00 +31°C° 0 mm 1 m/s 665 mmHg 37%
    20:00 +29°C° 0 mm 1 m/s 665 mmHg 40%
    21:00 +29°C° 0 mm 2 m/s 665 mmHg 42%
    22:00 +28°C° 0 mm 3 m/s 665 mmHg 45%
    23:00 +28°C° 0 mm 4 m/s 666 mmHg 47%

    22 Februarie, Sâmbătă

    Timp Temperatura Precipitaţii Vânt Presiune Umiditate
    00:00 +27°C° 0 mm 4 m/s 665 mmHg 55%
    01:00 +26°C° 0 mm 5 m/s 665 mmHg 62%
    02:00 +25°C° 0 mm 5 m/s 665 mmHg 70%
    03:00 +25°C° 0 mm 5 m/s 665 mmHg 70%
    04:00 +25°C° 0 mm 4 m/s 665 mmHg 71%
    05:00 +23°C° 0 mm 4 m/s 665 mmHg 72%
    06:00 +25°C° 0 mm 4 m/s 666 mmHg 69%
    07:00 +26°C° 0 mm 4 m/s 666 mmHg 66%
    08:00 +26°C° 0 mm 4 m/s 667 mmHg 63%
    09:00 +29°C° 0 mm 4 m/s 667 mmHg 54%
    10:00 +32°C° 0 mm 4 m/s 667 mmHg 46%
    11:00 +34°C° 0 mm 4 m/s 668 mmHg 38%
    12:00 +35°C° 0 mm 3 m/s 667 mmHg 36%
    13:00 +36°C° 0 mm 2 m/s 666 mmHg 33%
    14:00 +37°C° 0 mm 2 m/s 665 mmHg 30%
    15:00 +36°C° 0.2 mm 2 m/s 665 mmHg 33%
    16:00 +34°C° 0.2 mm 1 m/s 664 mmHg 36%
    17:00 +32°C° 0.2 mm 1 m/s 663 mmHg 39%
    18:00 +31°C° 0.4 mm 1 m/s 663 mmHg 46%
    19:00 +29°C° 0.4 mm 1 m/s 663 mmHg 53%
    20:00 +27°C° 0.4 mm 1 m/s 663 mmHg 60%
    21:00 +27°C° 0.6 mm 1 m/s 664 mmHg 61%
    22:00 +26°C° 0.6 mm 1 m/s 664 mmHg 63%
    23:00 +26°C° 0.6 mm 1 m/s 665 mmHg 64%

    23 Februarie, Duminică

    Timp Temperatura Precipitaţii Vânt Presiune Umiditate
    00:00 +25°C° 0.1 mm 1 m/s 664 mmHg 68%
    01:00 +25°C° 0.1 mm 1 m/s 664 mmHg 72%
    02:00 +24°C° 0.1 mm 1 m/s 664 mmHg 75%
    03:00 +23°C° 0.1 mm 2 m/s 664 mmHg 81%
    04:00 +21°C° 0.1 mm 2 m/s 663 mmHg 87%
    05:00 +21°C° 0.1 mm 3 m/s 663 mmHg 92%
    06:00 +21°C° 0.2 mm 3 m/s 664 mmHg 88%
    07:00 +22°C° 0.2 mm 3 m/s 664 mmHg 84%
    08:00 +24°C° 0.2 mm 3 m/s 665 mmHg 80%
    09:00 +26°C° 0.1 mm 3 m/s 665 mmHg 70%
    10:00 +28°C° 0.1 mm 3 m/s 666 mmHg 60%
    11:00 +31°C° 0.1 mm 3 m/s 666 mmHg 50%
    12:00 +31°C° 1.1 mm 3 m/s 666 mmHg 48%
    13:00 +33°C° 1.1 mm 3 m/s 665 mmHg 46%
    14:00 +33°C° 1.1 mm 3 m/s 664 mmHg 44%
    15:00 +33°C° 0.1 mm 4 m/s 664 mmHg 43%
    16:00 +33°C° 0.1 mm 4 m/s 664 mmHg 42%
    17:00 +33°C° 0.1 mm 4 m/s 663 mmHg 42%
    18:00 +29°C° 0.9 mm 4 m/s 663 mmHg 52%
    19:00 +27°C° 0.9 mm 4 m/s 664 mmHg 63%
    20:00 +24°C° 0.9 mm 3 m/s 664 mmHg 74%
    21:00 +23°C° 1.1 mm 5 m/s 665 mmHg 77%
    22:00 +22°C° 1.1 mm 6 m/s 665 mmHg 80%
    23:00 +22°C° 1.1 mm 7 m/s 666 mmHg 83%
    Arată mai mult